DELTA 1 DEB, 7027

Orbit data source: Space-Track

DELTA 1 DEB, 7027 is space debris in SSO originally from a launch on Tue, 06 Nov 1973 UTC launched from the Air Force Western Test Range (AFWTR). Debris objects in space refer to the collection of defunct objects orbiting the Earth. Examples of debris include non-operational satellites, rocket bodies, and fragments generated from explosions, collisions, or faulty payload assembly.

Loading next visibility...
Identifier
7027, 1973-086T
Orbit
SSO
Country
Flag of USUS
Related business
Manufacturer
Unknown
Mission
Spacecraft
Bus & Motor
Unknown
Mass
Unknown
Launch date (UTC)
1973-11-06 (53 years ago)
Launch vehicle
Unknown
Launch site
Air Force Western Test Range (AFWTR)
Object type
Payload
Rocket body
Debris
Shape & HBR
Unknown shape, 0.2 m
Radar Cross Section
Medium (>0.1 m² and <1 m²)

Expand to show TLE details & history
Last TLE update: 11 hours ago

TLE from 11 hours ago
0 DELTA 1 DEB
1  7027U 73086T   26221.64427557 -.00000109  00000-0 -51374-3 0  9998
2  7027 101.9017 111.7301 0059505 307.9830 108.7134 12.35231165370648
Epoch: 2026-08-09T15:27Z
TLE epoch observation values (Epoch: 2026-08-09T15:27:45.409Z)
Latitude
55.55991°
Longitude
-96.15717°
Altitude
1,551.243 km
Speed
7.09 km/s
True Right ascension
06h 15m 40s
True Declination
55° 24' 56"
Sunlit
Object was in daylight at epoch
Visualization orbit readout
Latitude
Unknown
Longitude
Unknown
Altitude
Unknown
Speed
Unknown
Apparent Right ascension
Unknown
Apparent Declination
Unknown
Sunlit
N/A
Visualization observer readout
Local Sidereal Time
16:42:01
Azimuth
Unknown
Elevation
Unknown
Doppler factor
Unknown
Orbital elements
Apogee altitude
1,571.483 km
Perigee altitude
1,477.434 km
Semi-major axis
7,902.596 km
Eccentricity
0.00595
Inclination
101.9017°
RAAN
111.7301°
Arg. of periapsis
307.983°
True anomaly
109.35768°
Mean anomaly
108.7134°
Eccentric anomaly
109.03569°
Mean motion
3.0895 °/min
Orbital period
116.52 mins
BSTAR
-0.00051374
Loading maneuver chart data...
Computing Atmospheric mass density...
Loading historical data...
Loading historical data...
Loading historical data...
Loading historical data...
Loading historical data...
Loading historical data...
Loading historical data...

Documentation

Showing up to 5 results
|